Location: Ab? ar R?sh Ba?r?
(24.1861°N, 32.8847°E)
Time: 11:43:39
(UTC+00:00)

CZ-2C R/B - Pass Details

Date: 24 October 2021
Orbit: 387 x 574 km, 35.0° (Epoch: 04 December)

Event Time Altitude Azimuth Distance (km) Brightness Sun altitude
Rises 15:28:35 0° 305° (NW) 2,540 5.4 -4.0°
Reaches altitude 10° 15:31:22 10° 324° (NW) 1,616 4.1 -4.6°
Maximum altitude 15:33:59 18° 10° (N) 1,168 2.8 -5.2°
Drops below altitude 10° 15:36:28 10° 55° (NE) 1,537 3.0 -5.7°
Enters shadow 15:37:19 - 64° (ENE) 1,785 3.3 -5.9°
